SORCE

Last updated on Mon Oct 20 2025 00:02:39 GMT+0000 (Coordinated Universal Time)

1 27651U 03004A 25292.04864776 .00007192 00000+0 55400-3 0 9995 2 27651 39.9907 195.5878 0015243 118.5449 241.6881 15.01632253235615
UTC large
Height (km)
Speed (km/s)
/
Latitude / Longitude
Inclination (degrees)
Orbital Period (minutes)
Azimuth
Elevation
Range (km)
Doppler Factor

Next 0 passes for location: London (51.5072 / 0.1276)

Sorry there are no passes over London.